Waarnemingen

Advertentie
Mijn weer
Figari, Frankrijk (7780): temperatuur & dauwpunt: 05.12.2017 01:00:00 - 11.12.2017 01:00:00 (CET)Figari, Frankrijk (7780): temperatuur 5cm: 05.12.2017 01:00:00 - 11.12.2017 01:00:00 (CET)Figari, Frankrijk (7780): windsnelheid & windstoten: 05.12.2017 01:00:00 - 11.12.2017 01:00:00 (CET)Figari, Frankrijk (7780): windrichting: 05.12.2017 01:00:00 - 11.12.2017 01:00:00 (CET)Figari, Frankrijk (7780): luchtdruk: 05.12.2017 01:00:00 - 11.12.2017 01:00:00 (CET)Figari, Frankrijk (7780): zicht: 05.12.2017 01:00:00 - 11.12.2017 01:00:00 (CET)Figari, Frankrijk (7780): Zonneschijnduur: 05.12.2017 01:00:00 - 11.12.2017 01:00:00 (CET)Figari, Frankrijk (7780): neerslag: 05.12.2017 01:00:00 - 11.12.2017 01:00:00 (CET)
Datum & Tijd tt [°C] td [°C] tt 5cm [°C] ff [km/u] ff [kn] fx [km/u] fx [kn] dd ppp [hPa] vv [km] sd [min] rr [mm]
11.12.2017 01:00:00 15,1 13,3 13,8 26 14 50 27 WZW 1005,5 10 0 0,0
11.12.2017 00:00:00 15,1 13,8 13,9 31 17 61 33 ZW 1006,6 10 0 0,2
10.12.2017 23:00:00 15,5 13,3 13,9 29 16 55 30 ZW 1006,7 14 0 0,0
10.12.2017 22:00:00 15,2 13,6 13,9 32 18 54 29 ZW 1007,3 10 0 0,0
10.12.2017 21:00:00 15,1 13,1 14,2 32 17 58 32 ZW 1007,7 16 0 0,0
10.12.2017 20:00:00 15,3 12,8 14,1 37 20 58 32 ZW 1008,1 10 0 0,0
10.12.2017 19:00:00 14,9 12,6 12,8 39 21 61 33 ZW 1008,6 10 0 0,0
10.12.2017 18:00:00 14,2 12,1 12,8 37 20 68 37 ZW 1009,1 19 0 0,0
10.12.2017 17:00:00 14,3 11,4 13,2 43 23 73 40 ZW 1009,4 34 0 0,0
10.12.2017 16:00:00 13,9 11,1 12,7 42 23 79 42 ZW 1009,9 34 0 0,0
10.12.2017 15:00:00 13,5 11,0 11,5 42 23 81 44 ZW 1010,6 20 0 0,0
10.12.2017 14:00:00 12,8 10,2 10,6 45 25 80 43 ZW 1011,6 29 0 0,0
10.12.2017 13:00:00 12,4 9,2 10,0 41 22 61 33 ZW 1013,0 10 0 0,0
10.12.2017 12:00:00 11,4 9,5 9,8 36 20 63 34 ZW 1014,5 8 0 0,6
10.12.2017 11:00:00 10,2 9,4 8,8 31 17 49 27 ZW 1015,8 2,0 0 3,1
10.12.2017 10:00:00 9,1 8,2 8,5 16 9 28 15 WZW 1016,7 3,2 0 2,0
10.12.2017 09:00:00 8,9 7,5 6,8 16 9 27 15 W 1016,6 6 0 1,0
10.12.2017 08:00:00 8,0 5,6 6,6 15 8 30 16 W 1016,6 8 0 0,4
10.12.2017 07:00:00 8,5 4,1 6,0 16 9 34 18 W 1016,7 60 0 0,0
10.12.2017 06:00:00 8,6 3,8 6,7 22 12 40 22 W 1016,7 25 0 0,0
10.12.2017 05:00:00 8,9 2,0 0,9 22 12 43 23 W 1017,1 60 0 0,0
10.12.2017 04:00:00 5,1 1,9 -6,2 13 7 30 16 WZW 1018,0 10 0 0,0
10.12.2017 03:00:00 -3,6 -4,4 -7,3 4 2 9 5 OZO 1018,7 60 0 0,0
10.12.2017 02:00:00 -3,1 -4,1 -7,1 4 2 7 4 NO 1019,3 10 0 0,0
10.12.2017 01:00:00 -2,0 -3,0 -5,6 5 3 8 4 NNO 1019,4 10 0 0,0
10.12.2017 00:00:00 -2,0 -3,1 -5,6 4 2 9 5 N 1019,7 10 0 0,0
09.12.2017 23:00:00 -1,4 -2,5 -5,6 5 3 10 6 NO 1019,6 60 0 0,0
09.12.2017 22:00:00 -0,7 -1,8 -5,4 7 4 13 7 ONO 1019,6 60 0 0,0
09.12.2017 21:00:00 0,2 -1,4 -4,4 4 2 8 4 ZO 1019,0 10 0 0,0
09.12.2017 20:00:00 3,3 -0,3 -2,7 4 2 11 6 - 1018,6 10 0 0,0
09.12.2017 19:00:00 7,5 0,0 4,4 7 4 22 12 W 1018,2 60 0 0,0
09.12.2017 18:00:00 7,6 0,6 5,9 11 6 40 21 WZW 1017,6 10 0 0,0
09.12.2017 17:00:00 8,0 0,2 3,7 17 9 35 19 WZW 1016,9 60 2 0,0
09.12.2017 16:00:00 9,0 -3,2 6,6 16 9 37 20 W 1016,3 60 14 0,0
09.12.2017 15:00:00 10,6 -0,9 11,7 26 14 43 23 WNW 1015,2 60 40 0,0
09.12.2017 14:00:00 12,0 1,3 11,5 24 13 49 27 W 1014,8 44 38 0,0
09.12.2017 13:00:00 10,8 -0,4 13,9 30 16 78 42 W 1014,5 32 55 0,0
09.12.2017 12:00:00 10,3 -2,1 9,3 44 24 77 42 WNW 1014,3 40 28 0,0
09.12.2017 11:00:00 10,0 -2,0 9,5 42 23 84 46 WNW 1014,0 10 36 0,0
09.12.2017 10:00:00 9,9 -2,4 10,7 50 27 89 48 WNW 1012,8 25 60 0,0
09.12.2017 09:00:00 9,6 -1,8 7,5 44 24 86 47 WNW 1011,5 18 49 0,0
09.12.2017 08:00:00 9,0 -1,7 7,2 41 22 94 51 WNW 1011,1 36 0 0,0
09.12.2017 07:00:00 9,3 -1,2 7,5 42 23 114 62 WNW 1010,7 10 0 0,0
09.12.2017 06:00:00 9,7 -1,7 8,0 50 27 103 56 NW 1009,9 10 0 0,0
09.12.2017 05:00:00 10,0 -1,4 7,5 50 27 108 58 WNW 1010,0 10 0 0,0
09.12.2017 04:00:00 10,5 -1,9 8,6 63 34 99 53 W 1010,5 59 0 0,0
09.12.2017 03:00:00 10,8 -0,1 9,0 35 19 90 49 W 1012,8 10 0 0,0
09.12.2017 02:00:00 10,7 -1,4 8,9 40 22 82 44 W 1012,9 60 0 0,0
09.12.2017 01:00:00 11,0 0,4 9,2 43 23 78 42 W 1013,8 59 0 0,0
09.12.2017 00:00:00 11,5 1,4 9,5 39 21 76 41 W 1015,0 10 0 0,0
08.12.2017 23:00:00 11,7 3,2 10,1 45 24 84 45 W 1014,6 53 0 0,0
08.12.2017 22:00:00 12,6 5,3 11,5 37 20 65 35 W 1015,5 44 0 0,0
08.12.2017 21:00:00 13,6 8,4 12,0 31 17 77 41 W 1015,4 10 0 0,0
08.12.2017 20:00:00 13,8 9,8 11,8 33 18 74 40 W 1015,5 58 0 0,0
08.12.2017 19:00:00 13,8 10,4 11,8 39 21 74 40 W 1015,7 10 0 0,2
08.12.2017 18:00:00 14,1 10,9 11,5 44 24 74 40 WZW 1016,2 38 0 0,0
08.12.2017 17:00:00 13,9 10,1 11,3 40 21 61 33 WZW 1017,3 41 0 0,0
08.12.2017 16:00:00 13,8 9,0 11,3 32 17 61 33 WZW 1018,2 49 0 0,0
08.12.2017 15:00:00 14,3 9,1 11,6 35 19 64 35 W 1018,3 40 0 0,0
08.12.2017 14:00:00 14,8 8,9 14,4 43 23 66 36 ZW 1019,2 46 2 0,0
08.12.2017 13:00:00 15,6 8,6 15,5 35 19 69 37 WZW 1020,4 49 8 0,0
08.12.2017 12:00:00 16,2 7,7 14,4 39 21 65 35 WZW 1021,6 10 2 0,0
08.12.2017 11:00:00 14,6 10,2 14,2 36 19 61 33 ZW 1022,7 36 0 0,0
08.12.2017 10:00:00 14,5 10,3 14,1 38 20 56 31 ZW 1023,4 34 5 0,0
08.12.2017 09:00:00 14,4 9,8 10,7 31 17 46 25 ZW 1023,6 39 31 0,0
08.12.2017 08:00:00 11,5 8,4 8,7 15 8 25 13 WZW 1024,2 60 0 0,0
08.12.2017 07:00:00 11,8 9,0 9,7 15 8 32 17 WZW 1024,6 53 0 0,0
08.12.2017 06:00:00 12,0 9,0 10,3 13 7 21 12 WZW 1025,0 60 0 0,0
08.12.2017 05:00:00 12,2 8,1 10,5 18 10 34 18 WZW 1025,6 60 0 0,0
08.12.2017 04:00:00 12,4 8,9 10,7 20 11 36 19 ZW 1026,4 60 0 0,0
08.12.2017 03:00:00 12,3 8,9 10,3 21 11 35 19 ZW 1027,2 10 0 0,0
08.12.2017 02:00:00 12,1 9,1 10,7 18 10 27 15 ZW 1027,7 57 0 0,0
08.12.2017 01:00:00 12,3 8,6 10,7 20 11 32 17 ZW 1028,4 60 0 0,0
08.12.2017 00:00:00 12,4 8,7 3,3 17 9 29 15 WZW 1029,2 59 0 0,0
07.12.2017 23:00:00 10,1 8,2 3,9 10 5 17 9 W 1029,5 60 0 0,0
07.12.2017 22:00:00 9,3 7,4 2,9 13 7 18 10 WZW 1029,7 10 0 0,0
07.12.2017 21:00:00 10,3 7,7 5,0 14 7 20 11 WZW 1030,0 59 0 0,0
07.12.2017 20:00:00 12,0 8,3 9,0 15 8 19 11 ZW 1030,2 60 0 0,0
07.12.2017 19:00:00 11,2 7,9 8,4 13 7 20 11 WZW 1030,4 10 0 0,0
07.12.2017 18:00:00 11,7 7,8 9,1 14 8 29 16 WZW 1030,6 60 0 0,0
07.12.2017 17:00:00 13,5 8,3 12,2 18 10 36 19 WZW 1030,7 60 25 0,0
07.12.2017 16:00:00 13,7 8,1 13,7 13 7 44 24 W 1030,8 60 15 0,0
07.12.2017 15:00:00 14,8 9,8 13,6 24 13 43 23 WZW 1030,7 57 3 0,0
07.12.2017 14:00:00 14,0 9,6 13,8 28 15 45 24 WZW 1031,1 10 4 0,0
07.12.2017 13:00:00 14,3 9,3 15,0 26 14 43 23 WZW 1031,7 45 5 0,0
07.12.2017 12:00:00 14,3 9,3 14,6 26 14 44 24 ZW 1032,5 10 8 0,0
07.12.2017 11:00:00 13,9 9,7 9,0 29 15 44 24 ZW 1033,1 46 8 0,0
07.12.2017 10:00:00 8,2 8,1 6,3 4 2 9 5 - 1033,4 10 0 0,0
07.12.2017 09:00:00 6,0 5,9 5,0 3 2 6 3 ZO 1033,2 26 0 0,0
07.12.2017 08:00:00 4,8 4,7 3,9 3 2 6 3 N 1033,2 20 0 0,0
07.12.2017 07:00:00 3,8 3,8 0,3 4 2 5 3 NNO 1033,0 10 0 0,0
07.12.2017 06:00:00 1,4 1,1 -1,2 3 2 7 4 NO 1033,2 21 0 0,0
07.12.2017 05:00:00 0,2 -0,1 -3,1 2 1 8 5 NO 1033,5 20 0 0,0
07.12.2017 04:00:00 0,0 -0,3 -3,6 7 4 10 5 NO 1033,7 20 0 0,0
07.12.2017 03:00:00 -0,5 -0,8 -4,3 8 4 10 6 NO 1034,2 19 0 0,0
07.12.2017 02:00:00 -1,3 -1,9 -4,5 4 2 9 5 NO 1034,1 18 0 0,0
07.12.2017 01:00:00 -0,8 -1,4 -4,3 3 1 7 4 NO 1034,4 18 0 0,0
07.12.2017 00:00:00 0,1 -0,2 -3,7 5 3 10 6 NO 1034,8 10 0 0,0
06.12.2017 23:00:00 -0,2 -0,9 -3,7 6 3 11 6 NO 1034,9 24 0 0,0
06.12.2017 22:00:00 0,2 -0,7 -3,6 4 2 9 5 NO 1034,9 26 0 0,0
06.12.2017 21:00:00 0,9 -0,1 -3,4 3 2 9 5 ONO 1034,9 29 0 0,0
06.12.2017 20:00:00 2,9 1,9 -2,6 5 3 12 7 NO 1034,6 41 0 0,0
06.12.2017 19:00:00 4,7 2,7 -1,8 7 4 18 10 NNO 1034,3 55 0 0,0
06.12.2017 18:00:00 8,6 4,0 2,6 10 5 31 17 W 1034,1 60 0 0,0
06.12.2017 17:00:00 11,1 3,9 8,0 13 7 35 19 W 1033,9 60 29 0,0
06.12.2017 16:00:00 13,4 4,3 13,1 22 12 41 22 W 1033,9 10 60 0,0
06.12.2017 15:00:00 14,2 4,5 16,8 29 15 48 26 W 1033,8 53 60 0,0
06.12.2017 14:00:00 14,7 4,7 18,2 31 17 54 29 W 1033,8 35 60 0,0
06.12.2017 13:00:00 14,3 5,1 18,4 34 18 52 28 W 1034,1 10 60 0,0
06.12.2017 12:00:00 14,1 5,4 12,9 31 17 54 29 W 1034,8 10 43 0,0
06.12.2017 11:00:00 13,3 5,7 12,0 29 15 43 23 W 1035,3 50 10 0,0
06.12.2017 10:00:00 12,6 6,2 10,9 21 11 34 18 W 1035,2 10 1 0,0
06.12.2017 09:00:00 11,1 6,8 7,2 18 10 30 16 WZW 1035,1 10 2 0,0
06.12.2017 08:00:00 8,8 6,8 1,0 15 8 22 12 WZW 1034,9 60 0 0,0
06.12.2017 07:00:00 4,6 4,6 -0,4 9 5 12 6 WZW 1034,9 10 0 0,0
06.12.2017 06:00:00 2,4 2,3 -2,8 9 5 12 7 ZW 1035,0 10 0 0,0
06.12.2017 05:00:00 0,0 -0,3 -3,0 8 4 10 5 W 1035,1 19 0 0,0
06.12.2017 04:00:00 -0,4 -1,0 -3,0 6 4 10 5 ZW 1035,3 26 0 0,0
06.12.2017 03:00:00 0,0 -0,3 -3,8 5 3 7 4 ZW 1035,5 10 0 0,0
06.12.2017 02:00:00 -1,0 -1,6 -3,8 5 3 10 5 ZW 1035,5 10 0 0,0
06.12.2017 01:00:00 -1,0 -1,6 -3,8 8 4 10 5 WZW 1035,7 21 0 0,0
06.12.2017 00:00:00 -0,8 -1,4 -3,6 4 2 6 3 ZW 1035,8 14 0 0,0
05.12.2017 23:00:00 -0,6 -1,2 -3,3 4 2 7 4 Z 1035,9 23 0 0,0
05.12.2017 22:00:00 -0,3 -0,9 -3,1 3 2 6 4 ZZO 1035,8 20 0 0,0
05.12.2017 21:00:00 0,4 -0,3 -2,8 2 1 5 3 ZO 1035,6 10 0 0,0
05.12.2017 20:00:00 0,9 -0,1 -2,5 0 0 7 4 N 1035,3 19 0 0,0
05.12.2017 19:00:00 2,6 1,7 -2,1 3 2 7 4 NNO 1034,8 20 0 0,0
05.12.2017 18:00:00 5,0 3,7 -1,2 3 2 - - ZZO 1034,6 19 0 0,0
05.12.2017 17:00:00 9,6 5,4 2,5 - - - - - 1034,2 40 13 0,0
05.12.2017 16:00:00 13,7 7,2 13,3 - - - - - 1034,0 10 1 0,0
05.12.2017 15:00:00 14,7 7,0 18,3 15 8 24 13 ZW 1033,6 45 60 0,0
05.12.2017 14:00:00 15,0 7,3 19,9 15 8 30 16 ZW 1033,6 10 60 0,0
05.12.2017 13:00:00 15,3 8,3 20,6 16 9 28 15 ZW 1033,6 20 60 0,0
05.12.2017 12:00:00 15,2 7,5 18,9 18 10 27 15 WZW 1033,7 60 60 0,0
05.12.2017 11:00:00 15,0 7,3 16,8 16 9 24 13 ZW 1033,9 30 60 0,0
05.12.2017 10:00:00 13,7 7,2 8,3 13 7 23 12 WZW 1033,5 41 60 0,0
05.12.2017 09:00:00 4,8 3,3 -2,8 6 3 9 5 Z 1033,2 35 54 0,0
05.12.2017 08:00:00 -0,9 -1,5 -3,8 8 4 13 7 NO 1032,9 40 0 0,0
05.12.2017 07:00:00 -0,7 -1,4 -3,6 6 3 13 7 NNO 1032,1 60 0 0,0
05.12.2017 06:00:00 -0,5 -1,3 -3,3 4 2 14 8 NNO 1031,6 60 0 0,0
05.12.2017 05:00:00 -1,0 -1,8 -3,5 4 2 11 6 N 1031,2 60 0 0,0
05.12.2017 04:00:00 -0,4 -1,8 -2,9 3 1 17 9 ONO 1031,2 60 0 0,0
05.12.2017 03:00:00 2,0 -0,3 -1,3 6 3 21 12 N 1031,2 60 0 0,0
05.12.2017 02:00:00 2,0 -0,1 -2,1 16 9 32 17 W 1031,0 10 0 0,0
05.12.2017 01:00:00 1,4 -1,0 -3,5 10 5 34 19 W 1030,8 60 0 0,0

tt = temperatuur
td = dauwpunt
tt 5cm = temperatuur 5cm
ff = windsnelheid
fx = windstoten
dd = windrichting
ppp = luchtdruk
vv = zicht
sd = Zonneschijnduur
rr = neerslag

Weerstations in de omgeving